SCP
0 0 0 0 0 0 0 0 0 0 0 0 0 0 0 0 0 0 0 0 0 0 0 0 0 0 0 0 0 0 0 0 0 0 0 0 0 0
0 0 0 0 0 0 0 0 0 0 0 0 0 0 0 0 0 0 0 0 0 0 0 0 0 0 0 0 0 0 0 0 0 0 0 0 0 0
0 0 0 0 0 0 0 0 0 0 0 0 0 0 0 0 0 0 0 0 0 0 0 0 0 0 0 0 0 0 0 0 0 0 0 0 0 0
0 0 0 0 0 0 0 0 0 0 0 0 0 0 0 0 0 0 0 0 0 0 0 0 0 0 0 0 0 0 0 0 0 0 0 0 0 0
0 0 0 0 0 0 0 0 0 0 0 0 0 0 0 0 0 0 0 0 0 0 0 0 0 0 0 0 0 0 0 0 0 0 0 0 0 0
0 0 0 0 0 0 0 0 0 0 0 0 0 0 0 0 0 0 0 0 0 0 0 0 0 0 0 0 0 0 0 0 0 0 0 0 0 0
0 0 0 0 0 0 0 0 0 0 0 0 0 0 0 0 0 0 0 0 0 0 0 0 0 0 0 0 0 0 0 0 0 0 0 0 0 0
0 0 0 0 0 0 0 0 0 0 0 0 0 0 0 0 0 0 0 0 0 0 0 0 0 0 0 0 0 0 0 0 0 0 0 0 0 0
0 0 0 0 0 0 0 0 0 0 0 0 0 0 0 0 0 0 0 0 0 0 0 0 0 0 0 0 0 0 0 0 0 0 0 0 0 0
0 0 0 0 0 0 0 0 0 0 0 0 0 0 0 0 0 0 0 0 0 0 0 0 0 0 0 0 0 0 0 0 0 0 0 0 0 0
0 0 0 0 0 0 0 0 0 0 0 0 0 0 0 0 0 0 0 0 0 0 0 0 0 0 0 0 0 0 0 0 0 0 0 0 0 0
0 0 0 0 0 0 0 0 0 0 0 0 0 0 0 0 0 0 0 0 0 0 0 0 0 0 0 0 0 0 0 0 0 0 0 0 0 0
0 0 0 0 0 0 0 0 0 0 0 0 0 0 0 0 0 0 0 0 0 0 0 0 0 0 0 0 0 0 0 0 0 0 0 0 0 0
0 0 0 0 0 0 0 0 0 0 0 0 0 0 0 0 0 0 0 0 0 0 0 0 0 0 0 0 0 0 0 0 0 0 0 0 0 0
0 0 0 0 0 0 0 0 0 0 0 0 0 0 0 0 0 0 0 0 0 0 0 0 0 0 0 0 0 0 0 0 0 0 0 0 0 0
0 0 0 0 0 0 0 0 0 0 0 0 0 0 0 0 0 0 0 0 0 0 0 0 0 0 0 0 0 0 0 0 0 0 0 0 0 0
0 0 0 0 0 0 0 0 0 0 0 0 0 0 0 0 0 0 0 0 0 0 0 0 0 0 0 0 0 0 0 0 0 0 0 0 0 0
0 0 0 0 0 0 0 0 0 0 0 0 0 0 0 0 0 0 0 0 0 0 0 0 0 0 0 0 0 0 0 0 0 0 0 0 0 0
0 0 0 0 0 0 0 0 0 0 0 0 0 0 0 0 0 0 0 0 0 0 0 0 0 0 0 0 0 0 0 0 0 0 0 0 0 0
0 0 0 0 0 0 0 0 0 0 0 0 0 0 0 0 0 0 0 0 0 0 0 0 0 0 0 0 0 0 0 0 0 0 0 0 0 0
0 0 0 0 0 0 0 0 0 0 0 0 0 0 0 0 0 0 0 0 0 0 0 0 0 0 0 0 0 0 0 0 0 0 0 0 0 0
0 0 0 0 0 0 0 0 0 0 0 0 0 0 0 0 0 0 0 0 0 0 0 0 0 0 0 0 0 0 0 0 0 0 0 0 0 0
0 0 0 0 0 0 0 0 0 0 0 0 0 0 0 0 0 0 0 0 0 0 0 0 0 0 0 0 0 0 0 0 0 0 0 0 0 0
Wind_Speed
2 2 2 2 2 3 3 3 3 3 4 3 3 2 3 3 4 4 4 6 7 9 10 12 12 12 12 13 15 16 17 17 18 19 20 20 21 21
2 2 2 2 2 2 3 3 4 4 4 3 3 4 4 5 5 4 5 7 8 9 10 12 12 12 12 13 14 15 16 17 17 18 19 19 19 20
3 3 4 3 3 2 2 3 3 4 6 5 3 3 4 5 5 4 4 5 5 8 10 11 11 12 12 13 14 15 15 16 17 18 19 19 20 20
4 3 4 3 4 3 3 4 4 5 5 7 4 4 5 5 5 5 5 4 5 7 9 10 11 12 12 13 13 14 14 15 16 16 17 19 20 21
4 4 5 4 5 4 4 4 4 4 5 5 6 4 4 4 4 4 5 4 5 5 8 9 11 11 12 13 13 14 14 15 15 15 16 17 18 19
5 5 5 5 6 6 5 5 5 5 5 5 6 5 5 4 3 4 4 3 4 4 4 5 7 10 12 13 13 14 14 15 15 15 15 16 16 17
5 5 6 8 9 7 6 6 5 5 5 5 6 5 5 4 4 3 4 4 4 3 3 3 4 4 7 10 13 15 15 15 16 16 16 16 16 16
7 6 6 7 8 9 9 9 8 7 7 6 6 7 8 6 5 4 4 3 4 2 2 3 3 4 5 6 10 13 14 15 16 16 16 16 16 16
7 7 6 6 6 6 8 9 9 10 11 9 9 10 9 7 6 6 6 6 6 3 2 4 3 5 5 6 10 12 14 15 15 16 16 17 17 17
8 8 8 8 7 6 6 7 8 8 8 8 9 10 9 8 8 7 7 6 6 4 4 5 4 5 5 5 8 11 13 14 15 15 16 16 16 16
8 7 8 9 10 9 7 8 9 9 8 10 11 11 12 12 9 5 5 5 6 5 5 5 4 4 4 5 7 10 12 13 13 14 15 15 15 14
7 7 10 11 11 9 7 7 10 9 7 7 7 8 8 9 10 9 8 7 5 5 5 5 4 3 4 3 3 4 6 9 12 12 13 14 14 10
6 6 6 9 11 11 9 9 11 10 7 7 7 7 7 6 6 7 8 8 8 7 4 5 4 4 4 3 2 3 4 4 4 6 10 12 13 12
7 7 7 9 10 11 9 10 12 10 6 6 7 7 7 7 6 6 8 9 9 10 7 7 5 5 5 5 4 3 3 3 3 4 4 7 10 12
8 10 11 11 10 9 10 12 9 6 6 6 7 8 7 7 6 5 6 7 8 10 9 10 9 7 7 6 5 4 3 3 4 4 5 5 6 7
7 8 9 10 9 9 9 7 6 6 6 7 7 7 6 5 5 5 4 4 5 6 7 9 10 10 8 9 7 6 5 4 3 4 4 4 5 6
4 3 4 4 5 5 6 6 5 5 6 7 7 7 6 6 6 5 4 5 5 5 5 5 7 7 9 7 7 7 7 6 5 5 4 4 5 6
4 5 6 6 6 7 6 6 5 6 6 6 7 7 6 6 6 5 5 5 6 6 6 5 5 4 4 5 8 8 7 6 5 6 5 4 5 5
5 6 7 7 7 7 6 6 6 6 5 6 6 7 6 6 6 6 5 5 6 6 6 5 5 6 6 6 5 8 7 6 5 5 5 5 5 5
6 7 7 7 7 7 6 6 6 5 5 5 6 6 6 6 6 6 6 6 6 6 6 5 6 7 8 7 4 4 7 7 6 6 5 3 2 3
6 7 7 7 7 7 6 6 6 6 6 5 5 6 6 6 6 6 6 7 6 6 6 7 7 8 5 4 4 4 3 5 5 4 5 4 3 3
7 7 7 7 7 6 6 6 6 6 6 5 5 5 5 5 7 7 6 6 6 6 7 5 5 5 5 6 6 5 4 3 2 2 1 2 4 6
7 7 7 7 6 6 5 6 7 6 5 5 5 5 5 5 5 6 6 6 6 6 6 5 4 4 5 6 6 5 6 5 3 3 1 3 1 2
Wind_Direction
262 252 244 250 239 234 229 216 228 266 278 275 283 303 304 288 278 266 259 255 246 235 230 228 223 218 217 217 217 217 219 219 220 220 220 220 219 219
257 258 258 254 254 245 238 233 227 237 261 269 266 288 300 298 292 280 265 262 249 237 229 226 222 217 215 215 215 216 218 218 219 219 220 220 218 217
275 263 267 263 260 257 245 242 237 228 253 269 261 274 279 285 294 290 273 258 253 242 234 228 223 220 218 217 216 217 218 219 219 220 220 219 217 216
277 274 275 276 267 264 253 250 247 236 243 270 276 272 265 273 281 285 281 268 255 248 240 235 228 224 222 222 220 219 220 221 221 221 221 220 219 216
264 265 269 269 269 264 258 256 256 255 239 257 274 273 271 273 281 282 281 278 266 253 244 239 234 228 223 224 223 221 221 222 222 222 222 221 220 218
262 259 261 256 259 263 262 258 258 261 254 255 267 272 270 271 263 268 279 273 276 271 256 247 237 234 229 225 224 223 222 223 223 223 223 223 223 219
274 266 263 264 260 255 257 257 255 257 258 256 263 267 266 262 256 253 265 278 276 257 259 247 235 237 232 228 226 224 221 220 221 222 222 222 222 221
276 279 278 272 274 272 268 264 251 251 255 254 257 259 263 260 256 250 252 261 272 243 242 256 231 241 240 234 227 225 224 221 220 221 221 221 220 219
264 271 277 276 277 276 279 281 272 259 247 246 254 258 261 254 247 249 242 243 249 250 246 264 244 251 249 246 234 230 229 225 223 221 220 220 219 218
258 258 263 273 272 267 274 279 278 273 262 251 248 255 258 259 246 249 254 252 254 248 224 252 248 250 253 248 242 234 230 228 224 223 222 220 218 217
263 257 254 262 267 264 264 272 280 281 271 257 251 257 260 260 250 240 234 233 251 247 207 228 247 252 252 249 243 235 231 227 225 222 221 219 217 213
270 262 251 252 261 261 255 259 269 274 281 286 276 271 269 267 250 233 230 231 241 250 211 208 234 234 256 241 238 233 230 225 222 222 218 214 205 203
269 270 264 254 257 260 252 248 252 262 275 275 277 276 273 266 257 240 228 227 232 240 219 200 222 218 237 266 262 241 231 225 211 214 213 207 200 197
259 265 267 270 268 268 260 253 257 260 261 265 269 268 266 263 258 251 238 233 236 244 238 217 230 231 237 247 254 248 235 226 218 217 211 198 201 205
252 257 265 273 276 270 259 260 260 252 246 251 258 261 259 259 263 259 249 240 242 244 242 230 229 233 236 241 243 242 248 242 223 218 209 203 200 192
255 266 273 273 266 263 269 265 250 241 239 249 256 261 262 259 256 251 251 243 243 248 238 231 228 227 236 240 237 239 234 229 214 212 214 214 205 199
258 267 269 274 276 273 268 264 255 243 241 245 251 257 257 255 254 248 243 241 239 247 245 230 225 224 230 235 234 232 231 232 223 213 213 223 218 205
225 250 263 265 267 270 273 273 261 250 246 246 247 248 250 251 253 247 237 239 243 242 241 233 217 214 223 235 227 231 228 228 220 208 206 218 225 211
223 249 258 262 264 265 264 264 264 262 254 247 246 246 245 246 247 248 244 241 244 243 239 229 217 215 229 238 226 214 218 214 208 208 208 214 222 209
231 248 255 259 260 262 262 262 265 268 260 252 248 247 245 244 245 246 244 242 245 244 241 230 220 219 225 230 228 214 203 206 206 207 204 204 201 174
242 246 251 255 257 258 259 258 258 260 260 256 251 249 246 242 242 244 245 245 245 245 242 238 229 216 220 213 220 220 203 202 203 199 189 184 187 187
255 254 255 255 255 255 256 256 257 256 258 255 255 255 251 245 245 244 241 241 241 243 246 246 227 204 205 212 217 217 209 187 171 145 127 190 188 192
254 256 257 257 253 248 248 251 255 258 257 255 253 253 253 249 247 246 246 242 241 244 243 237 220 210 213 215 215 208 197 189 174 162 118 6 54 116